Torna al catalogo

STARLINK-35071

AttivoComunicazioniVLEO
NORAD 65477·PAYLOAD·🇺🇸 United States

Lanciato Sep 3, 2025 da Cape Canaveral Space Force Station

Loading…

Prossimi Passaggi (prossime 24 ore)

TLE

AggiornatoSource: CelesTrak SupGP

Epoca: Sep 15, 2026, 02:59 UTC

1 65477C 25195V   26258.12479167 -.00007735  00000+0 -22855-3 0  2587
2 65477  53.1563  94.9425 0001251  86.8321 286.2048 15.34389891    16

Traccia STARLINK-35071 in tempo reale con AllMySat

Download on the App Store